Chillicothe, MO

2:59 AM CDT on June 27, 2017 (GMT -0500)
Chillicothe

Weather History for KCDJ - March, 2013

Change the Weather History Date:

Wednesday, March 13, 2013

  Actual Average (KIRK) Record (KIRK)
Temperature  
Mean Temperature 33 °F -  
Max Temperature 43 °F 47 °F 84 °F (1918)
Min Temperature 24 °F 28 °F 5 °F (1993)
Degree Days  
Heating Degree Days 32    
Moisture  
Dew Point 19 °F    
Average Humidity 60    
Maximum Humidity 77    
Minimum Humidity 40    
Precipitation  
Precipitation 0.00 in - - ()
Sea Level Pressure  
Sea Level Pressure 30.44 in    
Wind  
Wind Speed 6 mph (WNW)    
Max Wind Speed 9 mph    
Max Gust Speed 17 mph    
Averages and records for this station are not official NWS values.
T = Trace of Precipitation, MM = Missing Value Source: NWS Daily Summary

Daily Weather History Graph

Daily Weather History Graph

Search for Another Location

Airport or City:

Trip Planner

Search our weather history database for the weather conditions in past years. The results will help you decide how hot, cold, wet, or windy it might be!

Date:

Astronomy

Mar. 13, 2013 Rise Set
Actual Time 7:28 AM CDT 7:19 PM CDT
Civil Twilight 7:01 AM CDT 7:46 PM CDT
Nautical Twilight 6:30 AM CDT 8:17 PM CDT
Astronomical Twilight 5:58 AM CDT 8:49 PM CDT
Moon 8:08 AM CDT (3/13) 9:36 PM CDT (3/13)
Length of Visible Light 12h 44m
Length of Day
11h 50m
Waxing Crescent, 4% of the Moon is Illuminated
Mar 13
Waxing Crescent
Mar 19
First Quarter
Mar 27
Full
Apr 2
Last Quarter
Apr 10
New

Hourly Weather History & Observations

Time (CDT) Temp. Windchill Dew Point Humidity Pressure Visibility Wind Dir Wind Speed Gust Speed Precip Events Conditions
12:52 AM 28.9 °F 21.1 °F 19.9 °F 69% 30.35 in - NW 8.1 mph 17.3 mph N/A   Unknown
1:52 AM 28.0 °F 19.3 °F 19.0 °F 69% 30.36 in - NW 9.2 mph - N/A   Unknown
2:52 AM 28.0 °F 20.0 °F 18.0 °F 66% 30.38 in - NW 8.1 mph - N/A   Unknown
3:52 AM 26.1 °F 18.4 °F 18.0 °F 71% 30.38 in - NW 6.9 mph - N/A   Unknown
4:52 AM 26.1 °F 16.8 °F 18.0 °F 71% 30.40 in - NW 9.2 mph - N/A   Unknown
5:52 AM 25.0 °F 17.1 °F 18.0 °F 75% 30.42 in - WNW 6.9 mph - N/A   Unknown
6:52 AM 24.1 °F 15.2 °F 18.0 °F 77% 30.44 in - NW 8.1 mph - N/A   Unknown
7:52 AM 24.1 °F 16.0 °F 17.1 °F 75% 30.46 in - NW 6.9 mph - N/A   Unknown
8:52 AM 26.1 °F 17.6 °F 17.1 °F 69% 30.47 in - NNW 8.1 mph - N/A   Unknown
9:52 AM 28.0 °F 20.8 °F 17.1 °F 63% 30.51 in - Variable 6.9 mph - N/A   Unknown
10:52 AM 30.0 °F 25.2 °F 17.1 °F 59% 30.52 in - NW 4.6 mph - N/A   Unknown
11:52 AM 33.1 °F 27.7 °F 18.0 °F 54% 30.53 in - Variable 5.8 mph - N/A   Unknown
12:52 PM 36.0 °F 33.3 °F 16.0 °F 44% 30.52 in - Variable 3.5 mph - N/A   Unknown
1:52 PM 37.0 °F 33.3 °F 16.0 °F 42% 30.51 in - Variable 4.6 mph - N/A   Unknown
2:52 PM 39.0 °F 35.7 °F 19.9 °F 46% 30.48 in - Variable 4.6 mph - N/A   Unknown
3:52 PM 39.9 °F 35.8 °F 19.0 °F 43% 30.46 in - Variable 5.8 mph - N/A   Unknown
4:52 PM 42.1 °F 38.4 °F 19.0 °F 40% 30.45 in - WNW 5.8 mph - N/A   Unknown
5:52 PM 41.0 °F 39.0 °F 19.0 °F 41% 30.43 in - SSW 3.5 mph - N/A   Unknown
6:52 PM 41.0 °F 39.0 °F 21.0 °F 45% 30.43 in - SSE 3.5 mph - N/A   Unknown
7:52 PM 37.0 °F - 21.9 °F 54% 30.42 in - Calm Calm - N/A   Unknown
8:52 PM 33.1 °F - 24.1 °F 70% 30.43 in - Calm Calm - N/A   Unknown
9:52 PM 32.0 °F - 23.0 °F 69% 30.42 in - Calm Calm - N/A   Unknown
10:52 PM 32.0 °F - 21.9 °F 66% 30.42 in - Calm Calm - N/A   Unknown
11:52 PM 30.0 °F 26.5 °F 21.9 °F 72% 30.39 in - SSE 3.5 mph - N/A   Unknown